owner,sensor,date,latitude,longitude,vertical_datum,sea_water_practical_salinity,qcFlag 
SCCF RECON,ioos:station:SCCF:12:1,2009-06-01T00:00:00Z,26.4966,-82.1479,2.33,36.17,1111122 
SCCF RECON,ioos:station:SCCF:12:1,2009-06-01T01:00:00Z,26.4966,-82.1479,2.338,36.17,1111122 
SCCF RECON,ioos:station:SCCF:12:1,2009-06-01T02:00:00Z,26.4966,-82.1479,2.32,36.18,1111122 
SCCF RECON,ioos:station:SCCF:12:1,2009-06-01T03:00:00Z,26.4966,-82.1479,2.261,36.18,1111122 
SCCF RECON,ioos:station:SCCF:12:1,2009-06-01T04:00:00Z,26.4966,-82.1479,2.177,36.19,1111122 
SCCF RECON,ioos:station:SCCF:12:1,2009-06-01T05:00:00Z,26.4966,-82.1479,2.101,36.2,1111122 
SCCF RECON,ioos:station:SCCF:12:1,2009-06-01T06:00:00Z,26.4966,-82.1479,2.04,36.2,1111122 
SCCF RECON,ioos:station:SCCF:12:1,2009-06-01T07:00:00Z,26.4966,-82.1479,2.0,36.19,1111122 
SCCF RECON,ioos:station:SCCF:12:1,2009-06-01T08:00:00Z,26.4966,-82.1479,2.03,36.18,1111122 
SCCF RECON,ioos:station:SCCF:12:1,2009-06-01T09:00:00Z,26.4966,-82.1479,1.0,-9999.0,1111122 
SCCF RECON,ioos:station:SCCF:12:1,2009-06-01T10:00:00Z,26.4966,-82.1479,2.28,36.2,1111122 
SCCF RECON,ioos:station:SCCF:12:1,2009-06-01T11:00:00Z,26.4966,-82.1479,2.38,36.21,1111122 
SCCF RECON,ioos:station:SCCF:12:1,2009-06-01T12:00:00Z,26.4966,-82.1479,2.439,36.21,1111122 
SCCF RECON,ioos:station:SCCF:12:1,2009-06-01T13:00:00Z,26.4966,-82.1479,2.49,36.21,1111122 
SCCF RECON,ioos:station:SCCF:12:1,2009-06-01T14:00:00Z,26.4966,-82.1479,2.47,36.2,1111122 
SCCF RECON,ioos:station:SCCF:12:1,2009-06-01T15:00:00Z,26.4966,-82.1479,2.402,36.19,1111122 
SCCF RECON,ioos:station:SCCF:12:1,2009-06-01T16:00:00Z,26.4966,-82.1479,2.317,36.19,1111122 
SCCF RECON,ioos:station:SCCF:12:1,2009-06-01T17:00:00Z,26.4966,-82.1479,2.21,36.19,1111122 
SCCF RECON,ioos:station:SCCF:12:1,2009-06-01T18:00:00Z,26.4966,-82.1479,2.11,36.2,1111122 
SCCF RECON,ioos:station:SCCF:12:1,2009-06-01T19:00:00Z,26.4966,-82.1479,2.015,36.2,1111122 
SCCF RECON,ioos:station:SCCF:12:1,2009-06-01T20:00:00Z,26.4966,-82.1479,1.961,36.24,1111122 
SCCF RECON,ioos:station:SCCF:12:1,2009-06-01T21:00:00Z,26.4966,-82.1479,1.98,36.2,1111122 
SCCF RECON,ioos:station:SCCF:12:1,2009-06-01T22:00:00Z,26.4966,-82.1479,2.07,36.23,1111122 
SCCF RECON,ioos:station:SCCF:12:1,2009-06-01T23:00:00Z,26.4966,-82.1479,2.17,36.26,1111122 
SCCF RECON,ioos:station:SCCF:12:1,2009-06-02T00:00:00Z,26.4966,-82.1479,2.25,36.27,1111122 
SCCF RECON,ioos:station:SCCF:12:1,2009-06-02T01:00:00Z,26.4966,-82.1479,2.32,36.27,1111122 
SCCF RECON,ioos:station:SCCF:12:1,2009-06-02T02:00:00Z,26.4966,-82.1479,2.345,36.26,1111122 
SCCF RECON,ioos:station:SCCF:12:1,2009-06-02T03:00:00Z,26.4966,-82.1479,2.32,36.24,1111122 
SCCF RECON,ioos:station:SCCF:12:1,2009-06-02T04:00:00Z,26.4966,-82.1479,2.27,36.27,1111122 
SCCF RECON,ioos:station:SCCF:12:1,2009-06-02T05:00:00Z,26.4966,-82.1479,2.24,36.27,1111122 
SCCF RECON,ioos:station:SCCF:12:1,2009-06-02T06:00:00Z,26.4966,-82.1479,2.18,36.26,1111122 
SCCF RECON,ioos:station:SCCF:12:1,2009-06-02T07:00:00Z,26.4966,-82.1479,2.121,36.27,1111122 
SCCF RECON,ioos:station:SCCF:12:1,2009-06-02T08:00:00Z,26.4966,-82.1479,2.1,36.27,1111122 
SCCF RECON,ioos:station:SCCF:12:1,2009-06-02T09:00:00Z,26.4966,-82.1479,2.157,36.26,1111122 
SCCF RECON,ioos:station:SCCF:12:1,2009-06-02T10:00:00Z,26.4966,-82.1479,2.24,36.27,1111122 
SCCF RECON,ioos:station:SCCF:12:1,2009-06-02T11:00:00Z,26.4966,-82.1479,2.36,36.27,1111122 
SCCF RECON,ioos:station:SCCF:12:1,2009-06-02T12:00:00Z,26.4966,-82.1479,2.47,36.25,1111122 
SCCF RECON,ioos:station:SCCF:12:1,2009-06-02T13:00:00Z,26.4966,-82.1479,2.529,36.28,1111122 
SCCF RECON,ioos:station:SCCF:12:1,2009-06-02T14:00:00Z,26.4966,-82.1479,2.551,36.27,1111122 
SCCF RECON,ioos:station:SCCF:12:1,2009-06-02T15:00:00Z,26.4966,-82.1479,2.52,36.28,1111122 
SCCF RECON,ioos:station:SCCF:12:1,2009-06-02T16:00:00Z,26.4966,-82.1479,2.452,36.29,1111122 
SCCF RECON,ioos:station:SCCF:12:1,2009-06-02T17:00:00Z,26.4966,-82.1479,2.345,36.31,1111122 
SCCF RECON,ioos:station:SCCF:12:1,2009-06-02T19:00:00Z,26.4966,-82.1479,2.108,36.34,1111122 
SCCF RECON,ioos:station:SCCF:12:1,2009-06-02T20:00:00Z,26.4966,-82.1479,2.0,36.33,1111122 
SCCF RECON,ioos:station:SCCF:12:1,2009-06-02T21:00:00Z,26.4966,-82.1479,1.92,36.34,1111122 
SCCF RECON,ioos:station:SCCF:12:1,2009-06-02T22:00:00Z,26.4966,-82.1479,1.92,36.31,1111122 
SCCF RECON,ioos:station:SCCF:12:1,2009-06-02T23:00:00Z,26.4966,-82.1479,2.02,36.29,1111122 
SCCF RECON,ioos:station:SCCF:12:1,2009-06-03T00:00:00Z,26.4966,-82.1479,2.157,36.32,1111122 
SCCF RECON,ioos:station:SCCF:12:1,2009-06-03T01:00:00Z,26.4966,-82.1479,2.213,36.32,1111122 
SCCF RECON,ioos:station:SCCF:12:1,2009-06-03T02:00:00Z,26.4966,-82.1479,2.29,36.34,1111122 
SCCF RECON,ioos:station:SCCF:12:1,2009-06-03T03:00:00Z,26.4966,-82.1479,2.327,36.37,1111122 
SCCF RECON,ioos:station:SCCF:12:1,2009-06-03T04:00:00Z,26.4966,-82.1479,2.34,36.45,1111122 
SCCF RECON,ioos:station:SCCF:12:1,2009-06-03T05:00:00Z,26.4966,-82.1479,2.29,36.37,1111122 
SCCF RECON,ioos:station:SCCF:12:1,2009-06-03T06:00:00Z,26.4966,-82.1479,2.24,36.26,1111122 
SCCF RECON,ioos:station:SCCF:12:1,2009-06-03T07:00:00Z,26.4966,-82.1479,2.2,36.25,1111122 
SCCF RECON,ioos:station:SCCF:12:1,2009-06-03T08:00:00Z,26.4966,-82.1479,2.173,36.24,1111122 
SCCF RECON,ioos:station:SCCF:12:1,2009-06-03T09:00:00Z,26.4966,-82.1479,2.15,36.24,1111122 
SCCF RECON,ioos:station:SCCF:12:1,2009-06-03T10:00:00Z,26.4966,-82.1479,2.21,36.25,1111122 
SCCF RECON,ioos:station:SCCF:12:1,2009-06-03T11:00:00Z,26.4966,-82.1479,2.31,36.29,1111122 
SCCF RECON,ioos:station:SCCF:12:1,2009-06-03T12:00:00Z,26.4966,-82.1479,2.41,36.34,1111122 
SCCF RECON,ioos:station:SCCF:12:1,2009-06-03T13:00:00Z,26.4966,-82.1479,2.49,36.34,1111122 
SCCF RECON,ioos:station:SCCF:12:1,2009-06-03T14:00:00Z,26.4966,-82.1479,2.537,36.25,1111122 
SCCF RECON,ioos:station:SCCF:12:1,2009-06-03T15:00:00Z,26.4966,-82.1479,2.557,36.22,1111122 
SCCF RECON,ioos:station:SCCF:12:1,2009-06-03T16:00:00Z,26.4966,-82.1479,2.52,36.24,1111122 
SCCF RECON,ioos:station:SCCF:12:1,2009-06-03T17:00:00Z,26.4966,-82.1479,2.4,36.25,1111122 
SCCF RECON,ioos:station:SCCF:12:1,2009-06-03T18:00:00Z,26.4966,-82.1479,2.258,36.32,1111122 
SCCF RECON,ioos:station:SCCF:12:1,2009-06-03T19:00:00Z,26.4966,-82.1479,2.128,36.24,1111122 
SCCF RECON,ioos:station:SCCF:12:1,2009-06-03T20:00:00Z,26.4966,-82.1479,2.006,36.23,1111122 
SCCF RECON,ioos:station:SCCF:12:1,2009-06-03T21:00:00Z,26.4966,-82.1479,1.908,36.21,1111122 
SCCF RECON,ioos:station:SCCF:12:1,2009-06-03T22:00:00Z,26.4966,-82.1479,1.869,36.24,1111122 
SCCF RECON,ioos:station:SCCF:12:1,2009-06-03T23:00:00Z,26.4966,-82.1479,1.867,36.35,1111122 
SCCF RECON,ioos:station:SCCF:12:1,2009-06-04T00:00:00Z,26.4966,-82.1479,2.0,36.31,1111122 
SCCF RECON,ioos:station:SCCF:12:1,2009-06-04T01:00:00Z,26.4966,-82.1479,2.142,36.27,1111122 
SCCF RECON,ioos:station:SCCF:12:1,2009-06-04T02:00:00Z,26.4966,-82.1479,2.24,36.26,1111122 
SCCF RECON,ioos:station:SCCF:12:1,2009-06-04T03:00:00Z,26.4966,-82.1479,2.317,36.27,1111122 
SCCF RECON,ioos:station:SCCF:12:1,2009-06-04T04:00:00Z,26.4966,-82.1479,2.37,36.35,1111122 
SCCF RECON,ioos:station:SCCF:12:1,2009-06-04T05:00:00Z,26.4966,-82.1479,2.389,36.09,1111122 
SCCF RECON,ioos:station:SCCF:12:1,2009-06-04T06:00:00Z,26.4966,-82.1479,2.34,36.16,1111122 
SCCF RECON,ioos:station:SCCF:12:1,2009-06-04T07:00:00Z,26.4966,-82.1479,2.3,36.09,1111122 
SCCF RECON,ioos:station:SCCF:12:1,2009-06-04T08:00:00Z,26.4966,-82.1479,2.27,35.98,1111122 
SCCF RECON,ioos:station:SCCF:12:1,2009-06-04T09:00:00Z,26.4966,-82.1479,2.25,35.88,1111122 
SCCF RECON,ioos:station:SCCF:12:1,2009-06-04T10:00:00Z,26.4966,-82.1479,2.26,35.88,1111122 
SCCF RECON,ioos:station:SCCF:12:1,2009-06-04T11:00:00Z,26.4966,-82.1479,2.328,36.0,1111122 
SCCF RECON,ioos:station:SCCF:12:1,2009-06-04T12:00:00Z,26.4966,-82.1479,2.422,36.07,1111122 
SCCF RECON,ioos:station:SCCF:12:1,2009-06-04T13:00:00Z,26.4966,-82.1479,2.519,36.09,1111122 
SCCF RECON,ioos:station:SCCF:12:1,2009-06-04T14:00:00Z,26.4966,-82.1479,2.588,36.11,1111122 
SCCF RECON,ioos:station:SCCF:12:1,2009-06-04T15:00:00Z,26.4966,-82.1479,2.605,36.11,1111122 
SCCF RECON,ioos:station:SCCF:12:1,2009-06-04T16:00:00Z,26.4966,-82.1479,2.58,36.12,1111122 
SCCF RECON,ioos:station:SCCF:12:1,2009-06-04T17:00:00Z,26.4966,-82.1479,2.508,36.09,1111122 
SCCF RECON,ioos:station:SCCF:12:1,2009-06-04T18:00:00Z,26.4966,-82.1479,2.39,35.81,1111122 
SCCF RECON,ioos:station:SCCF:12:1,2009-06-04T19:00:00Z,26.4966,-82.1479,2.252,35.86,1111122 
SCCF RECON,ioos:station:SCCF:12:1,2009-06-04T20:00:00Z,26.4966,-82.1479,2.111,35.84,1111122 
SCCF RECON,ioos:station:SCCF:12:1,2009-06-04T21:00:00Z,26.4966,-82.1479,1.989,35.91,1111122 
SCCF RECON,ioos:station:SCCF:12:1,2009-06-04T22:00:00Z,26.4966,-82.1479,1.88,36.0,1111122 
SCCF RECON,ioos:station:SCCF:12:1,2009-06-04T23:00:00Z,26.4966,-82.1479,1.81,36.06,1111122 
SCCF RECON,ioos:station:SCCF:12:1,2009-06-05T00:00:00Z,26.4966,-82.1479,1.83,36.02,1111122 
SCCF RECON,ioos:station:SCCF:12:1,2009-06-05T01:00:00Z,26.4966,-82.1479,1.982,36.05,1111122 
SCCF RECON,ioos:station:SCCF:12:1,2009-06-05T02:00:00Z,26.4966,-82.1479,2.14,35.94,1111122 
SCCF RECON,ioos:station:SCCF:12:1,2009-06-05T03:00:00Z,26.4966,-82.1479,2.24,35.88,1111122 
SCCF RECON,ioos:station:SCCF:12:1,2009-06-05T04:00:00Z,26.4966,-82.1479,2.31,36.02,1111122 
SCCF RECON,ioos:station:SCCF:12:1,2009-06-05T05:00:00Z,26.4966,-82.1479,2.363,35.92,1111122 
SCCF RECON,ioos:station:SCCF:12:1,2009-06-05T06:00:00Z,26.4966,-82.1479,2.38,35.88,1111122 
SCCF RECON,ioos:station:SCCF:12:1,2009-06-05T07:00:00Z,26.4966,-82.1479,2.354,35.58,1111122 
SCCF RECON,ioos:station:SCCF:12:1,2009-06-05T08:00:00Z,26.4966,-82.1479,2.305,35.73,1111122 
SCCF RECON,ioos:station:SCCF:12:1,2009-06-05T09:00:00Z,26.4966,-82.1479,2.26,35.72,1111122 
SCCF RECON,ioos:station:SCCF:12:1,2009-06-05T10:00:00Z,26.4966,-82.1479,2.26,35.61,1111122 
SCCF RECON,ioos:station:SCCF:12:1,2009-06-05T11:00:00Z,26.4966,-82.1479,2.31,35.48,1111122 
SCCF RECON,ioos:station:SCCF:12:1,2009-06-05T12:00:00Z,26.4966,-82.1479,2.41,35.42,1111122 
SCCF RECON,ioos:station:SCCF:12:1,2009-06-05T13:00:00Z,26.4966,-82.1479,2.539,35.36,1111122 
SCCF RECON,ioos:station:SCCF:12:1,2009-06-05T14:00:00Z,26.4966,-82.1479,2.606,35.29,1111122 
SCCF RECON,ioos:station:SCCF:12:1,2009-06-05T15:00:00Z,26.4966,-82.1479,2.615,35.28,1111122 
SCCF RECON,ioos:station:SCCF:12:1,2009-06-05T16:00:00Z,26.4966,-82.1479,2.59,35.35,1111122 
SCCF RECON,ioos:station:SCCF:12:1,2009-06-05T17:00:00Z,26.4966,-82.1479,2.54,35.21,1111122 
SCCF RECON,ioos:station:SCCF:12:1,2009-06-05T18:00:00Z,26.4966,-82.1479,2.452,35.08,1111122 
SCCF RECON,ioos:station:SCCF:12:1,2009-06-05T19:00:00Z,26.4966,-82.1479,2.345,35.02,1111122 
SCCF RECON,ioos:station:SCCF:12:1,2009-06-05T20:00:00Z,26.4966,-82.1479,2.237,35.0,1111122 
SCCF RECON,ioos:station:SCCF:12:1,2009-06-05T21:00:00Z,26.4966,-82.1479,2.136,35.11,1111122 
SCCF RECON,ioos:station:SCCF:12:1,2009-06-05T22:00:00Z,26.4966,-82.1479,2.02,35.55,1111122 
SCCF RECON,ioos:station:SCCF:12:1,2009-06-05T23:00:00Z,26.4966,-82.1479,1.87,35.56,1111122 
SCCF RECON,ioos:station:SCCF:12:1,2009-06-06T00:00:00Z,26.4966,-82.1479,1.81,35.51,1111122 
SCCF RECON,ioos:station:SCCF:12:1,2009-06-06T01:00:00Z,26.4966,-82.1479,1.84,35.59,1111122 
SCCF RECON,ioos:station:SCCF:12:1,2009-06-06T02:00:00Z,26.4966,-82.1479,2.01,35.55,1111122 
SCCF RECON,ioos:station:SCCF:12:1,2009-06-06T03:00:00Z,26.4966,-82.1479,2.14,35.56,1111122 
SCCF RECON,ioos:station:SCCF:12:1,2009-06-06T04:00:00Z,26.4966,-82.1479,2.24,35.39,1111122 
SCCF RECON,ioos:station:SCCF:12:1,2009-06-06T05:00:00Z,26.4966,-82.1479,2.3,35.78,1111122 
SCCF RECON,ioos:station:SCCF:12:1,2009-06-06T06:00:00Z,26.4966,-82.1479,2.33,35.47,1111122 
SCCF RECON,ioos:station:SCCF:12:1,2009-06-06T07:00:00Z,26.4966,-82.1479,2.34,35.37,1111122 
SCCF RECON,ioos:station:SCCF:12:1,2009-06-06T08:00:00Z,26.4966,-82.1479,2.33,35.19,1111122 
SCCF RECON,ioos:station:SCCF:12:1,2009-06-06T09:00:00Z,26.4966,-82.1479,2.33,35.07,1111122 
SCCF RECON,ioos:station:SCCF:12:1,2009-06-06T10:00:00Z,26.4966,-82.1479,2.37,35.09,1111122 
SCCF RECON,ioos:station:SCCF:12:1,2009-06-06T11:00:00Z,26.4966,-82.1479,2.425,35.07,1111122 
SCCF RECON,ioos:station:SCCF:12:1,2009-06-06T12:00:00Z,26.4966,-82.1479,2.41,35.07,1111122 
SCCF RECON,ioos:station:SCCF:12:1,2009-06-06T13:00:00Z,26.4966,-82.1479,2.458,35.09,1111122 
SCCF RECON,ioos:station:SCCF:12:1,2009-06-06T14:00:00Z,26.4966,-82.1479,2.559,35.17,1111122 
SCCF RECON,ioos:station:SCCF:12:1,2009-06-06T15:00:00Z,26.4966,-82.1479,2.651,35.24,1111122 
SCCF RECON,ioos:station:SCCF:12:1,2009-06-06T16:00:00Z,26.4966,-82.1479,2.66,35.25,1111122 
SCCF RECON,ioos:station:SCCF:12:1,2009-06-06T17:00:00Z,26.4966,-82.1479,2.631,35.33,1111122 
SCCF RECON,ioos:station:SCCF:12:1,2009-06-06T18:00:00Z,26.4966,-82.1479,2.57,35.23,1111122 
SCCF RECON,ioos:station:SCCF:12:1,2009-06-06T19:00:00Z,26.4966,-82.1479,2.468,35.09,1111122 
SCCF RECON,ioos:station:SCCF:12:1,2009-06-06T20:00:00Z,26.4966,-82.1479,2.33,35.2,1111122 
SCCF RECON,ioos:station:SCCF:12:1,2009-06-06T21:00:00Z,26.4966,-82.1479,2.197,35.24,1111122 
SCCF RECON,ioos:station:SCCF:12:1,2009-06-06T22:00:00Z,26.4966,-82.1479,2.06,35.27,1111122 
SCCF RECON,ioos:station:SCCF:12:1,2009-06-06T23:00:00Z,26.4966,-82.1479,1.948,35.31,1111122 
SCCF RECON,ioos:station:SCCF:12:1,2009-06-07T00:00:00Z,26.4966,-82.1479,1.85,35.34,1111122 
SCCF RECON,ioos:station:SCCF:12:1,2009-06-07T01:00:00Z,26.4966,-82.1479,1.81,35.45,1111122 
SCCF RECON,ioos:station:SCCF:12:1,2009-06-07T02:00:00Z,26.4966,-82.1479,1.871,35.59,1111122 
SCCF RECON,ioos:station:SCCF:12:1,2009-06-07T03:00:00Z,26.4966,-82.1479,2.03,35.49,1111122 
SCCF RECON,ioos:station:SCCF:12:1,2009-06-07T04:00:00Z,26.4966,-82.1479,2.15,35.46,1111122 
SCCF RECON,ioos:station:SCCF:12:1,2009-06-07T05:00:00Z,26.4966,-82.1479,2.26,35.46,1111122 
SCCF RECON,ioos:station:SCCF:12:1,2009-06-07T06:00:00Z,26.4966,-82.1479,2.31,35.43,1111122 
SCCF RECON,ioos:station:SCCF:12:1,2009-06-07T07:00:00Z,26.4966,-82.1479,2.32,35.31,1111122 
SCCF RECON,ioos:station:SCCF:12:1,2009-06-07T08:00:00Z,26.4966,-82.1479,2.31,35.23,1111122 
SCCF RECON,ioos:station:SCCF:12:1,2009-06-07T09:00:00Z,26.4966,-82.1479,2.284,35.09,1111122 
SCCF RECON,ioos:station:SCCF:12:1,2009-06-07T10:00:00Z,26.4966,-82.1479,2.31,34.92,1111122 
SCCF RECON,ioos:station:SCCF:12:1,2009-06-07T11:00:00Z,26.4966,-82.1479,2.28,34.82,1111122 
SCCF RECON,ioos:station:SCCF:12:1,2009-06-07T12:00:00Z,26.4966,-82.1479,2.259,34.88,1111122 
SCCF RECON,ioos:station:SCCF:12:1,2009-06-07T13:00:00Z,26.4966,-82.1479,2.32,34.95,1111122 
SCCF RECON,ioos:station:SCCF:12:1,2009-06-07T14:00:00Z,26.4966,-82.1479,2.46,35.1,1111122 
SCCF RECON,ioos:station:SCCF:12:1,2009-06-07T15:00:00Z,26.4966,-82.1479,2.584,35.09,1111122 
SCCF RECON,ioos:station:SCCF:12:1,2009-06-07T16:00:00Z,26.4966,-82.1479,2.661,35.1,1111122 
SCCF RECON,ioos:station:SCCF:12:1,2009-06-07T17:00:00Z,26.4966,-82.1479,2.65,35.1,1111122 
SCCF RECON,ioos:station:SCCF:12:1,2009-06-07T18:00:00Z,26.4966,-82.1479,2.562,35.15,1111122 
SCCF RECON,ioos:station:SCCF:12:1,2009-06-07T19:00:00Z,26.4966,-82.1479,2.587,34.69,1111122 
SCCF RECON,ioos:station:SCCF:12:1,2009-06-07T20:00:00Z,26.4966,-82.1479,2.43,34.8,1111122 
SCCF RECON,ioos:station:SCCF:12:1,2009-06-07T21:00:00Z,26.4966,-82.1479,2.26,34.62,1111122 
SCCF RECON,ioos:station:SCCF:12:1,2009-06-07T22:00:00Z,26.4966,-82.1479,2.139,34.87,1111122 
SCCF RECON,ioos:station:SCCF:12:1,2009-06-07T23:00:00Z,26.4966,-82.1479,2.0,35.01,1111122 
SCCF RECON,ioos:station:SCCF:12:1,2009-06-08T00:00:00Z,26.4966,-82.1479,1.88,35.0,1111122 
SCCF RECON,ioos:station:SCCF:12:1,2009-06-08T01:00:00Z,26.4966,-82.1479,1.8,34.97,1111122 
SCCF RECON,ioos:station:SCCF:12:1,2009-06-08T02:00:00Z,26.4966,-82.1479,1.813,35.01,1111122 
SCCF RECON,ioos:station:SCCF:12:1,2009-06-08T03:00:00Z,26.4966,-82.1479,1.977,35.03,1111122 
SCCF RECON,ioos:station:SCCF:12:1,2009-06-08T04:00:00Z,26.4966,-82.1479,2.12,34.95,1111122 
SCCF RECON,ioos:station:SCCF:12:1,2009-06-08T05:00:00Z,26.4966,-82.1479,2.21,34.98,1111122 
SCCF RECON,ioos:station:SCCF:12:1,2009-06-08T06:00:00Z,26.4966,-82.1479,2.31,35.03,1111122 
SCCF RECON,ioos:station:SCCF:12:1,2009-06-08T07:00:00Z,26.4966,-82.1479,2.361,34.92,1111122 
SCCF RECON,ioos:station:SCCF:12:1,2009-06-08T08:00:00Z,26.4966,-82.1479,2.37,34.79,1111122 
SCCF RECON,ioos:station:SCCF:12:1,2009-06-08T09:00:00Z,26.4966,-82.1479,2.298,34.57,1111122 
SCCF RECON,ioos:station:SCCF:12:1,2009-06-08T10:00:00Z,26.4966,-82.1479,2.27,34.52,1111122 
SCCF RECON,ioos:station:SCCF:12:1,2009-06-08T11:00:00Z,26.4966,-82.1479,2.28,34.58,1111122 
SCCF RECON,ioos:station:SCCF:12:1,2009-06-08T12:00:00Z,26.4966,-82.1479,2.31,34.61,1111122 
SCCF RECON,ioos:station:SCCF:12:1,2009-06-08T13:00:00Z,26.4966,-82.1479,2.374,34.53,1111122 
SCCF RECON,ioos:station:SCCF:12:1,2009-06-08T14:00:00Z,26.4966,-82.1479,2.47,34.58,1111122 
SCCF RECON,ioos:station:SCCF:12:1,2009-06-08T15:00:00Z,26.4966,-82.1479,2.508,34.89,1111122 
SCCF RECON,ioos:station:SCCF:12:1,2009-06-08T16:00:00Z,26.4966,-82.1479,2.619,34.85,1111122 
SCCF RECON,ioos:station:SCCF:12:1,2009-06-08T17:00:00Z,26.4966,-82.1479,2.639,34.93,1111122 
SCCF RECON,ioos:station:SCCF:12:1,2009-06-08T18:00:00Z,26.4966,-82.1479,2.628,34.87,1111122 
SCCF RECON,ioos:station:SCCF:12:1,2009-06-08T19:00:00Z,26.4966,-82.1479,2.54,34.86,1111122 
SCCF RECON,ioos:station:SCCF:12:1,2009-06-08T20:00:00Z,26.4966,-82.1479,2.42,34.8,1111122 
SCCF RECON,ioos:station:SCCF:12:1,2009-06-08T21:00:00Z,26.4966,-82.1479,2.28,34.76,1111122 
SCCF RECON,ioos:station:SCCF:12:1,2009-06-08T22:00:00Z,26.4966,-82.1479,2.153,34.85,1111122 
SCCF RECON,ioos:station:SCCF:12:1,2009-06-08T23:00:00Z,26.4966,-82.1479,2.03,34.75,1111122 
SCCF RECON,ioos:station:SCCF:12:1,2009-06-09T00:00:00Z,26.4966,-82.1479,1.914,34.8,1111122 
SCCF RECON,ioos:station:SCCF:12:1,2009-06-09T01:00:00Z,26.4966,-82.1479,1.818,34.87,1111122 
SCCF RECON,ioos:station:SCCF:12:1,2009-06-09T02:00:00Z,26.4966,-82.1479,1.76,34.78,1111122 
SCCF RECON,ioos:station:SCCF:12:1,2009-06-09T03:00:00Z,26.4966,-82.1479,1.84,34.88,1111122 
SCCF RECON,ioos:station:SCCF:12:1,2009-06-09T04:00:00Z,26.4966,-82.1479,2.0,34.84,1111122 
SCCF RECON,ioos:station:SCCF:12:1,2009-06-09T05:00:00Z,26.4966,-82.1479,2.12,34.84,1111122 
SCCF RECON,ioos:station:SCCF:12:1,2009-06-09T06:00:00Z,26.4966,-82.1479,2.22,34.9,1111122 
SCCF RECON,ioos:station:SCCF:12:1,2009-06-09T07:00:00Z,26.4966,-82.1479,2.296,34.92,1111122 
SCCF RECON,ioos:station:SCCF:12:1,2009-06-09T08:00:00Z,26.4966,-82.1479,2.36,34.83,1111122 
SCCF RECON,ioos:station:SCCF:12:1,2009-06-09T09:00:00Z,26.4966,-82.1479,2.37,34.55,1111122 
SCCF RECON,ioos:station:SCCF:12:1,2009-06-09T10:00:00Z,26.4966,-82.1479,2.33,34.46,1111122 
SCCF RECON,ioos:station:SCCF:12:1,2009-06-09T11:00:00Z,26.4966,-82.1479,2.3,34.51,1111122 
SCCF RECON,ioos:station:SCCF:12:1,2009-06-09T12:00:00Z,26.4966,-82.1479,2.31,34.48,1111122 
SCCF RECON,ioos:station:SCCF:12:1,2009-06-09T13:00:00Z,26.4966,-82.1479,2.345,34.67,1111122 
SCCF RECON,ioos:station:SCCF:12:1,2009-06-09T14:00:00Z,26.4966,-82.1479,2.4,34.63,1111122 
SCCF RECON,ioos:station:SCCF:12:1,2009-06-09T15:00:00Z,26.4966,-82.1479,2.491,34.77,1111122 
SCCF RECON,ioos:station:SCCF:12:1,2009-06-09T16:00:00Z,26.4966,-82.1479,2.587,34.77,1111122 
SCCF RECON,ioos:station:SCCF:12:1,2009-06-09T17:00:00Z,26.4966,-82.1479,2.64,34.79,1111122 
SCCF RECON,ioos:station:SCCF:12:1,2009-06-09T18:00:00Z,26.4966,-82.1479,2.639,34.87,1111122 
SCCF RECON,ioos:station:SCCF:12:1,2009-06-09T19:00:00Z,26.4966,-82.1479,2.576,34.87,1111122 
SCCF RECON,ioos:station:SCCF:12:1,2009-06-09T20:00:00Z,26.4966,-82.1479,2.466,34.84,1111122 
SCCF RECON,ioos:station:SCCF:12:1,2009-06-09T21:00:00Z,26.4966,-82.1479,2.331,34.84,1111122 
SCCF RECON,ioos:station:SCCF:12:1,2009-06-09T22:00:00Z,26.4966,-82.1479,2.203,34.91,1111122 
SCCF RECON,ioos:station:SCCF:12:1,2009-06-09T23:00:00Z,26.4966,-82.1479,2.086,34.96,1111122 
SCCF RECON,ioos:station:SCCF:12:1,2009-06-10T00:00:00Z,26.4966,-82.1479,1.978,35.0,1111122 
SCCF RECON,ioos:station:SCCF:12:1,2009-06-10T01:00:00Z,26.4966,-82.1479,1.88,35.0,1111122 
SCCF RECON,ioos:station:SCCF:12:1,2009-06-10T02:00:00Z,26.4966,-82.1479,1.812,34.98,1111122 
SCCF RECON,ioos:station:SCCF:12:1,2009-06-10T03:00:00Z,26.4966,-82.1479,1.799,35.0,1111122 
SCCF RECON,ioos:station:SCCF:12:1,2009-06-10T04:00:00Z,26.4966,-82.1479,1.896,34.99,1111122 
SCCF RECON,ioos:station:SCCF:12:1,2009-06-10T05:00:00Z,26.4966,-82.1479,2.042,35.09,1111122 
SCCF RECON,ioos:station:SCCF:12:1,2009-06-10T06:00:00Z,26.4966,-82.1479,2.161,35.09,1111122 
SCCF RECON,ioos:station:SCCF:12:1,2009-06-10T07:00:00Z,26.4966,-82.1479,2.256,34.94,1111122 
SCCF RECON,ioos:station:SCCF:12:1,2009-06-10T08:00:00Z,26.4966,-82.1479,2.312,34.97,1111122 
SCCF RECON,ioos:station:SCCF:12:1,2009-06-10T09:00:00Z,26.4966,-82.1479,2.335,35.02,1111122 
SCCF RECON,ioos:station:SCCF:12:1,2009-06-10T10:00:00Z,26.4966,-82.1479,2.315,35.02,1111122 
SCCF RECON,ioos:station:SCCF:12:1,2009-06-10T11:00:00Z,26.4966,-82.1479,2.274,34.97,1111122 
SCCF RECON,ioos:station:SCCF:12:1,2009-06-10T12:00:00Z,26.4966,-82.1479,2.253,34.92,1111122 
SCCF RECON,ioos:station:SCCF:12:1,2009-06-10T13:00:00Z,26.4966,-82.1479,2.268,34.94,1111122 
SCCF RECON,ioos:station:SCCF:12:1,2009-06-10T14:00:00Z,26.4966,-82.1479,2.299,35.03,1111122 
SCCF RECON,ioos:station:SCCF:12:1,2009-06-10T15:00:00Z,26.4966,-82.1479,2.36,35.03,1111122 
SCCF RECON,ioos:station:SCCF:12:1,2009-06-10T16:00:00Z,26.4966,-82.1479,2.46,35.04,1111122 
SCCF RECON,ioos:station:SCCF:12:1,2009-06-10T17:00:00Z,26.4966,-82.1479,2.548,35.16,1111122 
SCCF RECON,ioos:station:SCCF:12:1,2009-06-10T18:00:00Z,26.4966,-82.1479,2.601,35.18,1111122 
SCCF RECON,ioos:station:SCCF:12:1,2009-06-10T19:00:00Z,26.4966,-82.1479,2.592,35.23,1111122 
SCCF RECON,ioos:station:SCCF:12:1,2009-06-10T20:00:00Z,26.4966,-82.1479,2.51,35.22,1111122 
SCCF RECON,ioos:station:SCCF:12:1,2009-06-10T21:00:00Z,26.4966,-82.1479,2.412,35.22,1111122 
SCCF RECON,ioos:station:SCCF:12:1,2009-06-10T22:00:00Z,26.4966,-82.1479,2.293,35.26,1111122 
SCCF RECON,ioos:station:SCCF:12:1,2009-06-10T23:00:00Z,26.4966,-82.1479,2.201,35.59,1111122 
SCCF RECON,ioos:station:SCCF:12:1,2009-06-11T00:00:00Z,26.4966,-82.1479,2.091,35.59,1111122 
SCCF RECON,ioos:station:SCCF:12:1,2009-06-11T01:00:00Z,26.4966,-82.1479,1.978,35.62,1111122 
SCCF RECON,ioos:station:SCCF:12:1,2009-06-11T02:00:00Z,26.4966,-82.1479,1.88,35.76,1111122 
SCCF RECON,ioos:station:SCCF:12:1,2009-06-11T03:00:00Z,26.4966,-82.1479,1.831,35.8,1111122 
SCCF RECON,ioos:station:SCCF:12:1,2009-06-11T04:00:00Z,26.4966,-82.1479,1.86,35.92,1111122 
SCCF RECON,ioos:station:SCCF:12:1,2009-06-11T05:00:00Z,26.4966,-82.1479,1.99,35.84,1111122 
SCCF RECON,ioos:station:SCCF:12:1,2009-06-11T06:00:00Z,26.4966,-82.1479,2.12,35.79,1111122 
SCCF RECON,ioos:station:SCCF:12:1,2009-06-11T07:00:00Z,26.4966,-82.1479,2.229,35.79,1111122 
SCCF RECON,ioos:station:SCCF:12:1,2009-06-11T08:00:00Z,26.4966,-82.1479,2.31,35.86,1111122 
SCCF RECON,ioos:station:SCCF:12:1,2009-06-11T09:00:00Z,26.4966,-82.1479,2.36,35.82,1111122 
SCCF RECON,ioos:station:SCCF:12:1,2009-06-11T10:00:00Z,26.4966,-82.1479,2.38,35.62,1111122 
SCCF RECON,ioos:station:SCCF:12:1,2009-06-11T11:00:00Z,26.4966,-82.1479,2.35,35.45,1111122 
SCCF RECON,ioos:station:SCCF:12:1,2009-06-11T12:00:00Z,26.4966,-82.1479,2.319,35.41,1111122 
SCCF RECON,ioos:station:SCCF:12:1,2009-06-11T13:00:00Z,26.4966,-82.1479,2.301,35.23,1111122 
SCCF RECON,ioos:station:SCCF:12:1,2009-06-11T14:00:00Z,26.4966,-82.1479,2.321,35.26,1111122 
SCCF RECON,ioos:station:SCCF:12:1,2009-06-11T15:00:00Z,26.4966,-82.1479,2.362,35.37,1111122 
SCCF RECON,ioos:station:SCCF:12:1,2009-06-11T16:00:00Z,26.4966,-82.1479,2.419,35.56,1111122 
SCCF RECON,ioos:station:SCCF:12:1,2009-06-11T17:00:00Z,26.4966,-82.1479,2.49,35.75,1111122 
SCCF RECON,ioos:station:SCCF:12:1,2009-06-11T18:00:00Z,26.4966,-82.1479,2.57,35.82,1111122 